• In Kazakhstan
  • List of Countries
  • For 7 days
  • Water Temperature
  • Weather Map
  • News
  • Weather Widgets
  • user-avatar
    Login

    Hourly Weather Jerusalem

    Today, 3 June, Wednesday

    Time Temperature Precipitation Wind Pressure Humidity
    00:00 +16°C° 0 mm 3 mps 691 mmHg 80%
    01:00 +16°C° 0 mm 3 mps 691 mmHg 81%
    02:00 +15°C° 0 mm 2 mps 690 mmHg 81%
    03:00 +15°C° 0 mm 2 mps 690 mmHg 81%
    04:00 +15°C° 0 mm 2 mps 691 mmHg 81%
    05:00 +15°C° 0 mm 2 mps 691 mmHg 81%
    06:00 +16°C° 0 mm 2 mps 691 mmHg 73%
    07:00 +17°C° 0 mm 2 mps 692 mmHg 64%
    08:00 +18°C° 0 mm 3 mps 692 mmHg 58%
    09:00 +20°C° 0 mm 3 mps 693 mmHg 52%
    10:00 +21°C° 0 mm 4 mps 693 mmHg 46%
    11:00 +22°C° 0 mm 4 mps 693 mmHg 41%
    12:00 +23°C° 0 mm 4 mps 693 mmHg 39%
    13:00 +23°C° 0 mm 5 mps 693 mmHg 37%
    14:00 +25°C° 0 mm 5 mps 693 mmHg 35%
    15:00 +23°C° 0 mm 5 mps 693 mmHg 35%
    16:00 +23°C° 0 mm 6 mps 693 mmHg 35%
    17:00 +22°C° 0 mm 6 mps 693 mmHg 34%
    18:00 +21°C° 0 mm 5 mps 693 mmHg 37%
    19:00 +20°C° 0 mm 3 mps 693 mmHg 39%
    20:00 +18°C° 0 mm 2 mps 692 mmHg 41%
    21:00 +18°C° 0 mm 2 mps 692 mmHg 41%
    22:00 +18°C° 0 mm 2 mps 692 mmHg 41%
    23:00 +18°C° 0 mm 1 mps 692 mmHg 41%

    Tomorrow, 4 June, Thursday

    Time Temperature Precipitation Wind Pressure Humidity
    00:00 +18°C° 0 mm 1 mps 692 mmHg 41%
    01:00 +16°C° 0 mm 1 mps 692 mmHg 41%
    02:00 +16°C° 0 mm 1 mps 691 mmHg 42%
    03:00 +16°C° 0 mm 1 mps 692 mmHg 42%
    04:00 +16°C° 0 mm 1 mps 692 mmHg 43%
    05:00 +16°C° 0 mm 1 mps 692 mmHg 43%
    06:00 +19°C° 0 mm 1 mps 692 mmHg 38%
    07:00 +21°C° 0 mm 1 mps 693 mmHg 32%
    08:00 +24°C° 0 mm 1 mps 693 mmHg 26%
    09:00 +25°C° 0 mm 2 mps 694 mmHg 25%
    10:00 +27°C° 0 mm 2 mps 694 mmHg 24%
    11:00 +29°C° 0 mm 2 mps 695 mmHg 22%
    12:00 +29°C° 0 mm 3 mps 694 mmHg 23%
    13:00 +29°C° 0 mm 4 mps 694 mmHg 24%
    14:00 +29°C° 0 mm 5 mps 694 mmHg 24%
    15:00 +28°C° 0 mm 5 mps 694 mmHg 28%
    16:00 +27°C° 0 mm 5 mps 694 mmHg 31%
    17:00 +26°C° 0 mm 5 mps 694 mmHg 34%
    18:00 +25°C° 0 mm 5 mps 694 mmHg 39%
    19:00 +22°C° 0 mm 4 mps 693 mmHg 43%
    20:00 +20°C° 0 mm 3 mps 693 mmHg 47%
    21:00 +20°C° 0 mm 3 mps 694 mmHg 45%
    22:00 +20°C° 0 mm 2 mps 694 mmHg 44%
    23:00 +19°C° 0 mm 2 mps 694 mmHg 42%

    Day after tomorrow, 5 June, Friday

    Time Temperature Precipitation Wind Pressure Humidity
    00:00 +19°C° 0 mm 2 mps 694 mmHg 44%
    01:00 +18°C° 0 mm 2 mps 693 mmHg 45%
    02:00 +18°C° 0 mm 2 mps 693 mmHg 47%
    03:00 +18°C° 0 mm 1 mps 693 mmHg 48%
    04:00 +18°C° 0 mm 1 mps 693 mmHg 49%
    05:00 +18°C° 0 mm 1 mps 693 mmHg 50%
    06:00 +20°C° 0 mm 1 mps 694 mmHg 44%
    07:00 +22°C° 0 mm 1 mps 694 mmHg 39%
    08:00 +24°C° 0 mm 2 mps 695 mmHg 33%
    09:00 +26°C° 0 mm 2 mps 695 mmHg 30%
    10:00 +27°C° 0 mm 2 mps 695 mmHg 27%
    11:00 +29°C° 0 mm 2 mps 695 mmHg 23%
    12:00 +30°C° 0.1 mm 3 mps 695 mmHg 24%
    13:00 +30°C° 0.1 mm 4 mps 694 mmHg 25%
    14:00 +32°C° 0.1 mm 4 mps 694 mmHg 26%
    15:00 +30°C° 0 mm 5 mps 694 mmHg 27%
    16:00 +29°C° 0 mm 6 mps 693 mmHg 28%
    17:00 +28°C° 0 mm 6 mps 693 mmHg 30%
    18:00 +26°C° 0 mm 5 mps 693 mmHg 31%
    19:00 +25°C° 0 mm 4 mps 693 mmHg 32%
    20:00 +23°C° 0 mm 2 mps 693 mmHg 34%
    21:00 +23°C° 0 mm 2 mps 693 mmHg 34%
    22:00 +21°C° 0 mm 2 mps 693 mmHg 35%
    23:00 +21°C° 0 mm 2 mps 693 mmHg 36%

    6 June, Saturday

    Time Temperature Precipitation Wind Pressure Humidity
    00:00 +21°C° 0 mm 1 mps 693 mmHg 37%
    01:00 +21°C° 0 mm 1 mps 693 mmHg 39%
    02:00 +18°C° 0 mm 0 mps 692 mmHg 40%
    03:00 +20°C° 0 mm 1 mps 692 mmHg 42%
    04:00 +20°C° 0 mm 1 mps 692 mmHg 44%
    05:00 +19°C° 0 mm 1 mps 692 mmHg 46%
    06:00 +21°C° 0 mm 1 mps 693 mmHg 41%
    07:00 +24°C° 0 mm 1 mps 693 mmHg 37%
    08:00 +26°C° 0 mm 1 mps 694 mmHg 32%
    09:00 +27°C° 0 mm 2 mps 694 mmHg 29%
    10:00 +29°C° 0 mm 2 mps 694 mmHg 26%
    11:00 +31°C° 0 mm 2 mps 694 mmHg 24%
    12:00 +31°C° 0 mm 3 mps 694 mmHg 28%
    13:00 +30°C° 0 mm 4 mps 693 mmHg 32%
    14:00 +30°C° 0 mm 5 mps 693 mmHg 36%
    15:00 +30°C° 0 mm 5 mps 692 mmHg 34%
    16:00 +29°C° 0 mm 5 mps 692 mmHg 33%
    17:00 +29°C° 0 mm 4 mps 692 mmHg 32%
    18:00 +27°C° 0 mm 4 mps 692 mmHg 34%
    19:00 +26°C° 0 mm 3 mps 692 mmHg 36%
    20:00 +24°C° 0 mm 2 mps 692 mmHg 39%
    21:00 +24°C° 0 mm 2 mps 692 mmHg 38%
    22:00 +23°C° 0 mm 2 mps 692 mmHg 37%
    23:00 +23°C° 0 mm 2 mps 692 mmHg 36%

    7 June, Sunday

    Time Temperature Precipitation Wind Pressure Humidity
    00:00 +22°C° 0 mm 1 mps 691 mmHg 40%
    01:00 +21°C° 0 mm 1 mps 691 mmHg 44%
    02:00 +20°C° 0 mm 1 mps 691 mmHg 47%
    03:00 +20°C° 0 mm 1 mps 691 mmHg 49%
    04:00 +20°C° 0 mm 1 mps 691 mmHg 51%
    05:00 +17°C° 0 mm 0 mps 691 mmHg 53%
    06:00 +19°C° 0 mm 0 mps 691 mmHg 49%
    07:00 +22°C° 0 mm 0 mps 692 mmHg 44%
    08:00 +26°C° 0 mm 1 mps 693 mmHg 39%
    09:00 +27°C° 0 mm 1 mps 693 mmHg 35%
    10:00 +29°C° 0 mm 1 mps 693 mmHg 30%
    11:00 +31°C° 0 mm 2 mps 693 mmHg 26%
    12:00 +31°C° 0 mm 2 mps 693 mmHg 26%
    13:00 +33°C° 0 mm 3 mps 693 mmHg 27%
    14:00 +33°C° 0 mm 4 mps 692 mmHg 27%
    15:00 +32°C° 0 mm 5 mps 692 mmHg 28%
    16:00 +30°C° 0 mm 5 mps 692 mmHg 28%
    17:00 +30°C° 0 mm 6 mps 691 mmHg 28%
    18:00 +28°C° 0 mm 5 mps 691 mmHg 33%
    19:00 +26°C° 0 mm 4 mps 691 mmHg 38%
    20:00 +24°C° 0 mm 2 mps 691 mmHg 43%
    21:00 +23°C° 0 mm 2 mps 691 mmHg 44%
    22:00 +21°C° 0 mm 2 mps 691 mmHg 45%
    23:00 +20°C° 0 mm 2 mps 691 mmHg 46%

    8 June, Monday

    Time Temperature Precipitation Wind Pressure Humidity
    00:00 +20°C° 0 mm 2 mps 691 mmHg 47%
    01:00 +19°C° 0 mm 2 mps 690 mmHg 48%
    02:00 +19°C° 0 mm 1 mps 690 mmHg 48%
    03:00 +19°C° 0 mm 1 mps 690 mmHg 48%
    04:00 +19°C° 0 mm 1 mps 690 mmHg 48%
    05:00 +19°C° 0 mm 1 mps 690 mmHg 48%
    06:00 +21°C° 0 mm 1 mps 691 mmHg 42%
    07:00 +23°C° 0 mm 1 mps 691 mmHg 37%
    08:00 +25°C° 0 mm 1 mps 692 mmHg 31%
    09:00 +27°C° 0 mm 2 mps 692 mmHg 29%
    10:00 +28°C° 0 mm 3 mps 692 mmHg 27%
    11:00 +29°C° 0 mm 4 mps 692 mmHg 24%
    12:00 +30°C° 0 mm 4 mps 692 mmHg 23%
    13:00 +32°C° 0 mm 5 mps 692 mmHg 22%
    14:00 +32°C° 0 mm 5 mps 692 mmHg 21%
    15:00 +30°C° 0 mm 5 mps 692 mmHg 23%
    16:00 +29°C° 0 mm 6 mps 691 mmHg 25%
    17:00 +27°C° 0 mm 6 mps 691 mmHg 27%
    18:00 +26°C° 0 mm 5 mps 691 mmHg 33%
    19:00 +23°C° 0 mm 4 mps 691 mmHg 39%
    20:00 +21°C° 0 mm 3 mps 691 mmHg 45%
    21:00 +21°C° 0 mm 2 mps 691 mmHg 47%
    22:00 +20°C° 0 mm 2 mps 691 mmHg 49%
    23:00 +19°C° 0 mm 2 mps 691 mmHg 51%
    Show more